Tenerife, Spain

6:04 PM WET on December 11, 2018 (GMT +0000)
Tenerife

Weather History for GCXO - October, 2018

Change the Weather History Date:

Thursday, October 11, 2018

  Actual Average Record
Temperature  
Mean Temperature 65 °F -  
Max Temperature 73 °F 68 °F 82 °F (2011)
Min Temperature 57 °F 58 °F 55 °F (2007)
Growing Degree Days 15 (Base 50)    
Moisture  
Dew Point 60 °F    
Average Humidity 81    
Maximum Humidity 100    
Minimum Humidity 66    
Precipitation  
Precipitation 0.00 in - - ()
Sea Level Pressure  
Sea Level Pressure 30.08 in    
Wind  
Wind Speed 4 mph ()    
Max Wind Speed 8 mph    
Max Gust Speed -    
Visibility 7.7 miles    
Events      
Averages and records for this station are not official NWS values.
T = Trace of Precipitation, MM = Missing Value Source: Averaged Metar Reports

Daily Weather History Graph

Daily Weather History Graph

Search for Another Location

Airport or City:

Astronomy

Oct. 11, 2018 Rise Set
Actual Time 8:03 AM WEST 7:40 PM WEST
Civil Twilight 7:39 AM WEST 8:03 PM WEST
Nautical Twilight 7:12 AM WEST 8:31 PM WEST
Astronomical Twilight 6:45 AM WEST 8:58 PM WEST
Moon 10:14 AM WEST 9:38 PM WEST
Length of Visible Light 12h 23m
Length of Day
11h 36m
Waxing Crescent, 6% of the Moon is Illuminated
Oct 11
Waxing Crescent
Oct 16
First Quarter
Oct 24
Full
Oct 31
Last Quarter
Nov 7
New

Hourly Weather History & Observations

Time (WEST) Temp. Dew Point Humidity Pressure Visibility Wind Dir Wind Speed Gust Speed Precip Events Conditions
12:00 AM 62.6 °F 57.2 °F 82% 30.06 in 6.2 mi West 5.8 mph - N/A   Scattered Clouds
12:30 AM 64.4 °F 59.0 °F 83% 30.04 in 6.2 mi SW 5.8 mph - N/A   Unknown
1:00 AM 65 °F 58 °F 73% 29.99 in 19 mi SW 5.8 mph - -  
1:00 AM 64.4 °F 57.2 °F 77% 30.04 in 6.2 mi WSW 5.8 mph - N/A   Unknown
1:30 AM 64.4 °F 57.2 °F 77% 30.04 in 6.2 mi Variable 2.3 mph - N/A   Unknown
2:00 AM 60.8 °F 57.2 °F 88% 30.04 in 6.2 mi SW 2.3 mph - N/A   Mostly Cloudy
2:30 AM 64.4 °F 57.2 °F 77% 30.04 in 6.2 mi West 3.5 mph - N/A   Overcast
3:00 AM 62.6 °F 55.4 °F 77% 30.04 in 6.2 mi West 5.8 mph - N/A   Scattered Clouds
3:30 AM 62.6 °F 53.6 °F 72% 30.04 in 6.2 mi West 4.6 mph - N/A   Unknown
4:00 AM 62 °F 54 °F 66% 29.99 in 19 mi SW 5.8 mph - -  
4:00 AM 60.8 °F 53.6 °F 77% 30.04 in 6.2 mi SW 5.8 mph - N/A   Unknown
4:30 AM 64.4 °F 60.8 °F 88% 30.04 in 6.2 mi South 3.5 mph - N/A   Unknown
5:00 AM 60.8 °F 59.0 °F 94% 30.04 in 6.2 mi Calm Calm - N/A   Unknown
5:30 AM 60.8 °F 59.0 °F 94% 30.04 in 6.2 mi Calm Calm - N/A   Unknown
6:30 AM 62.6 °F 55.4 °F 77% 30.04 in 6.2 mi West 4.6 mph - N/A   Partly Cloudy
7:00 AM 63 °F 55 °F 68% 30.00 in 19 mi WSW 5.8 mph - -   Scattered Clouds
7:00 AM 62.6 °F 55.4 °F 77% 30.04 in 6.2 mi West 4.6 mph - N/A   Partly Cloudy
7:30 AM 64.4 °F 55.4 °F 73% 30.04 in 6.2 mi WSW 6.9 mph - N/A   Partly Cloudy
8:00 AM 62.6 °F 53.6 °F 72% 30.06 in 6.2 mi WSW 5.8 mph - N/A   Partly Cloudy
9:00 AM 64.4 °F 57.2 °F 77% 30.06 in 6.2 mi Variable 2.3 mph - N/A   Partly Cloudy
9:30 AM 68.0 °F 60.8 °F 78% 30.09 in 6.2 mi Variable 3.5 mph - N/A   Partly Cloudy
10:00 AM 68.0 °F 62.6 °F 83% 30.09 in 6.2 mi East 5.8 mph - N/A   Partly Cloudy
10:30 AM 69.8 °F 64.4 °F 83% 30.12 in 6.2 mi East 5.8 mph - N/A   Scattered Clouds
11:00 AM 68.0 °F 62.6 °F 83% 30.12 in 6.2 mi ESE 4.6 mph - N/A   Scattered Clouds
11:30 AM 68.0 °F 64.4 °F 88% 30.12 in 6.2 mi ESE 3.5 mph - N/A   Scattered Clouds
12:30 PM 69.8 °F 64.4 °F 83% 30.12 in 6.2 mi ESE 5.8 mph - N/A   Mostly Cloudy
1:00 PM 69 °F 65 °F 83% 30.04 in 16 mi East 6.9 mph - -   Mostly Cloudy
1:00 PM 69.8 °F 64.4 °F 83% 30.12 in 6.2 mi East 5.8 mph - N/A   Mostly Cloudy
1:30 PM 71.6 °F 64.4 °F 78% 30.12 in 6.2 mi ESE 6.9 mph - N/A   Mostly Cloudy
2:00 PM 71.6 °F 64.4 °F 78% 30.12 in 6.2 mi SE 6.9 mph - N/A   Mostly Cloudy
3:00 PM 71.6 °F 62.6 °F 73% 30.09 in 6.2 mi ESE 8.1 mph - N/A   Mostly Cloudy
3:30 PM 73.4 °F 62.6 °F 69% 30.09 in 6.2 mi SE 6.9 mph - N/A   Scattered Clouds
4:00 PM 73 °F 64 °F 66% 30.00 in 19 mi SE 6.9 mph - -   Partly Cloudy
4:00 PM 73.4 °F 64.4 °F 73% 30.09 in 6.2 mi SE 5.8 mph - N/A   Scattered Clouds
4:30 PM 71.6 °F 64.4 °F 78% 30.09 in 6.2 mi SE 8.1 mph - N/A   Mostly Cloudy
5:00 PM 69.8 °F 62.6 °F 78% 30.09 in 6.2 mi ESE 6.9 mph - N/A   Mostly Cloudy
6:00 PM 68.0 °F 64.4 °F 88% 30.09 in 6.2 mi SE 3.5 mph - N/A   Mostly Cloudy
6:30 PM 69.8 °F 64.4 °F 83% 30.09 in 6.2 mi NW 5.8 mph - N/A   Mostly Cloudy
7:00 PM 68 °F 63 °F 78% 30.04 in 19 mi NW 6.9 mph - -   Partly Cloudy
7:00 PM 68.0 °F 62.6 °F 83% 30.09 in 6.2 mi NW 6.9 mph - N/A   Scattered Clouds
8:00 PM 66.2 °F 60.8 °F 83% 30.12 in 6.2 mi NW 4.6 mph - N/A   Partly Cloudy
8:30 PM 66.2 °F 62.6 °F 88% 30.12 in 6.2 mi West 2.3 mph - N/A   Partly Cloudy
9:00 PM 64.4 °F 62.6 °F 94% 30.12 in 6.2 mi West 2.3 mph - N/A   Partly Cloudy
9:30 PM 64.4 °F 64.4 °F 100% 30.15 in 6.2 mi Variable 2.3 mph - N/A   Partly Cloudy
10:00 PM 64.4 °F 62.6 °F 94% 30.15 in 6.2 mi SW 2.3 mph - N/A   Partly Cloudy
10:30 PM 64.4 °F 60.8 °F 88% 30.15 in 6.2 mi Calm Calm - N/A   Partly Cloudy
11:00 PM 62.6 °F 60.8 °F 94% 30.15 in 6.2 mi Calm Calm - N/A   Partly Cloudy
11:30 PM 62.6 °F 60.8 °F 94% 30.18 in 5.0 mi Calm Calm - N/A   Unknown